Back to catalog

YAOGAN 2 DEB

AliveMilitaryPO
NORAD 38263·DEBRIS·🇨🇳 China

Launched May 25, 2007 from Jiuquan Satellite Launch Center

Loading…

Next Passes (next 24 hours)

TLE

FreshSource: Space-Track

Epoch: Sep 14, 2026, 02:55 UTC

1 38263U 07019C   26257.12169116  .00001139  00000-0  31792-3 0  9997
2 38263  97.8946 136.3804 0196388 107.6110 254.6633 14.37208999   734

Track YAOGAN 2 DEB in real time with AllMySat

Download on the App Store